Location: Decatur Area Astronomy Club
(40.0275°N, 88.7810°W)
Time: 05:41:04
(UTC-05:00)

Daily predictions for brighter satellites

Satellite Brightness Start Highest point End
(mag) Time Altitude Azimuth Time Altitude Azimuth Time Altitude Azimuth
ISS -0.3 00:03:34 10° NNW 00:04:30 11° N 00:05:25 10° NNE
CZ-2C R/B 3.0 00:00:17 10° NNE 00:04:29 56° NE 00:04:29 56° NE
Cosmos 2227 Rocket 2.2 00:01:14 10° NNW 00:06:32 75° NNE 00:06:32 75° NNE
ALOS 2 3.8 00:10:11 39° NNE 00:10:11 39° NNE 00:13:09 10° N
Terra 4.0 00:12:01 16° W 00:12:01 16° W 00:14:51 10° NW
Cosmos 1656 4.2 00:13:18 49° NE 00:13:18 49° NE 00:17:29 10° NNE
Cosmos 2219 4.4 00:07:36 10° NW 00:12:18 31° W 00:12:18 31° W
ATLAS CENTAUR R/B 3.5 00:12:21 21° NW 00:12:41 21° NW 00:15:40 10° N
CZ-4C R/B 4.0 00:13:57 10° NNW 00:20:24 36° NE 00:24:28 22° E
Meteor 1-11 Rocket 3.8 00:26:12 79° NW 00:26:12 79° NW 00:31:56 10° N
Cosmos 2369 3.9 00:28:50 69° NW 00:28:50 69° NW 00:34:15 10° NNE
Cosmos 1980 Rocket 3.5 00:32:51 30° ENE 00:32:51 30° ENE 00:36:19 10° NE
Meteor 2-4 Rocket 3.9 00:28:46 10° N 00:33:16 64° N 00:33:16 64° N
Cosmos 883 Rocket 4.4 00:31:52 10° N 00:37:46 74° WNW 00:37:46 74° WNW
GP-B 4.4 00:39:24 10° N 00:42:11 39° N 00:42:11 39° N
Cosmos 1190 Rocket 4.5 00:38:45 10° NNW 00:42:53 57° N 00:42:53 57° N
Mayak 0.5 00:44:15 10° NNE 00:46:31 31° NNE 00:46:31 31° NNE
Cosmos 1697 Rocket 2.9 00:58:59 66° N 00:58:59 66° N 01:03:53 10° NNE
USA 229 DEB 3.6 00:58:24 70° W 00:59:01 75° NW 01:06:00 10° NNE
USA 229 3.6 00:58:32 71° W 00:59:07 76° NW 01:06:06 10° NNE
Cosmos 2297 Rocket 3.1 00:55:59 10° NW 01:00:02 38° WNW 01:00:02 38° WNW
Cosmos 1238 Rocket 4.1 00:58:23 10° N 01:03:15 58° ENE 01:03:15 58° ENE
NOSS 3-1 (A) 4.4 01:06:30 35° E 01:06:30 35° E 01:10:54 10° NE
Cosmos 407 Rocket 4.2 01:00:16 10° NNW 01:04:17 50° NW 01:04:17 50° NW
Cosmos 1140 Rocket 4.2 01:00:55 10° N 01:05:16 49° NE 01:05:16 49° NE
SL-16 R/B 3.6 01:16:28 27° E 01:16:28 27° E 01:20:11 10° NE
CZ-4B R/B 4.2 01:25:12 19° N 01:25:12 19° N 01:26:18 10° N
Cosmos 2322 Rocket 3.4 01:23:57 32° E 01:23:57 32° E 01:28:04 10° NE
Cosmos 1745 Rocket 4.0 01:23:36 70° ENE 01:23:36 70° ENE 01:29:30 10° NNE
SL-08 R/B 4.4 01:29:54 83° NW 01:29:54 83° NW 01:36:07 10° N
Cosmos 2360 4.3 01:33:01 71° N 01:33:01 71° N 01:38:09 10° NNE
Cosmos 2227 4.3 01:40:22 10° NNW 01:45:17 69° NNW 01:45:17 69° NNW
NOSS 3-1 (C) 3.4 01:48:18 72° WNW 01:48:21 72° NW 01:54:48 10° NNE
H-2A R/B 4.1 01:44:36 10° NNE 01:46:48 31° NNE 01:46:48 31° NNE
Cosmos 1066 Rocket 4.4 01:49:11 10° NNW 01:53:41 61° NW 01:53:41 61° NW
Meteor 1-12 Rocket 4.3 01:56:40 70° NW 01:56:40 70° NW 02:02:07 10° N
CZ-2D R/B 4.4 01:53:43 10° ENE 01:56:34 14° E 01:57:52 13° ESE
Cosmos 1452 Rocket 4.5 01:58:11 38° WNW 01:58:11 38° WNW 02:02:50 10° N
PSLV R/B 4.3 02:01:18 10° N 02:05:10 58° N 02:05:10 58° N
Cosmos 2263 Rocket 2.9 02:00:42 10° NNW 02:06:13 49° ENE 02:07:41 40° ESE
CZ-4C R/B 2.9 02:02:12 10° NW 02:09:23 60° WSW 02:09:36 59° SW
Cosmos 1850 Rocket 4.4 02:04:07 10° NNW 02:08:31 58° NW 02:08:31 58° NW
USA 81 4.2 02:06:11 10° N 02:10:54 70° NNW 02:10:54 70° NNW
Cosmos 2360 Rocket 3.1 02:13:50 35° ESE 02:14:00 35° ESE 02:19:05 10° NE
Cosmos 1980 Rocket 3.4 02:14:36 31° WNW 02:15:12 31° WNW 02:20:11 10° N
Cosmos 1110 Rocket 4.1 02:22:12 69° ENE 02:22:12 69° ENE 02:27:03 10° NNE
Cosmos 44 4.5 02:17:56 10° NNW 02:21:58 35° NE 02:23:12 30° E
USA 234 3.1 02:18:38 10° NE 02:25:13 79° SE 02:26:14 65° SSW
SL-08 R/B 3.9 02:28:14 48° E 02:28:33 49° ENE 02:33:00 10° N
Cosmos 1709 Rocket 3.9 02:33:25 65° WSW 02:33:55 68° W 02:40:01 10° N
SL-8 R/B 4.2 02:35:18 51° E 02:35:18 51° E 02:39:06 10° ENE
ADEOS Rocket 2.9 02:31:57 10° NNE 02:38:06 68° ESE 02:39:03 58° SSE
Meteor 1-4 Rocket 4.2 02:39:29 31° NE 02:39:29 31° NE 02:41:49 10° NNE
Cosmos 2322 4.1 02:41:25 47° SE 02:42:09 50° ESE 02:47:37 10° NNE
Cosmos 1437 Rocket 4.1 02:45:58 35° NW 02:45:58 35° NW 02:48:50 10° N
COBE Rocket 3.9 02:40:11 10° NNE 02:45:24 82° ESE 02:45:46 76° SSE
AQUA 3.9 02:41:20 10° NNE 02:46:05 68° ESE 02:46:12 68° ESE
ATLAS 2AS CENTAUR R/B 3.4 02:47:50 39° SSE 02:50:21 54° ESE 02:58:11 10° NE
ARIANE 5 R/B 3.5 02:50:08 10° NNE 02:54:59 41° E 02:56:25 33° SE
UNK 4.4 02:54:29 38° ESE 02:55:49 52° ENE 03:00:20 10° N
NOSS 3-1 (A) 4.5 02:53:55 28° W 02:56:00 36° NW 03:02:01 10° NNE
Cosmos 1825 Rocket 3.6 02:51:53 10° N 02:56:14 76° ENE 02:56:14 76° ENE
SL-08 ROCKET BODY 4.3 02:55:22 59° SSW 02:56:34 80° W 03:02:39 10° N
Cosmos 1758 Rocket 3.9 02:54:12 10° N 02:58:29 57° E 02:58:56 54° ESE
SL-16 R/B 3.0 02:58:20 36° W 02:59:17 39° WNW 03:04:36 10° N
Cosmos 1707 4.1 02:56:10 10° NNE 02:59:42 33° ENE 03:00:27 30° ESE
Meteor 2-13 Rocket 4.3 02:59:54 56° SSW 03:01:20 84° W 03:07:31 10° N
SL-16 R/B 2.7 02:58:12 28° SSE 03:01:38 71° ENE 03:07:53 10° N
Cosmos 1331 Rocket 4.1 03:01:21 55° W 03:01:44 56° WNW 03:06:50 10° N
NOSS 2-3 (E) 3.7 03:02:20 74° S 03:02:43 80° ESE 03:08:06 10° NE
Meteor 1-15 Rocket 4.1 03:02:21 61° SSW 03:03:22 82° W 03:09:07 10° N
Cosmos 2228 3.9 03:03:19 38° ESE 03:04:00 41° E 03:08:03 10° NNE
MOS 1 Rocket 4.3 03:02:41 10° NNE 03:06:47 35° E 03:07:56 30° SE
Cosmos 2322 Rocket 3.2 03:05:45 31° W 03:06:58 34° WNW 03:12:09 10° N
Resurs 1-4 Rocket 2.2 03:04:54 10° NNE 03:10:09 67° ESE 03:11:36 46° SSE
Cosmos 2184 Rocket 3.9 03:09:28 48° SSW 03:11:20 85° W 03:17:32 10° N
Cosmos 44 Rocket 3.1 03:07:36 10° NW 03:12:08 67° WSW 03:12:08 67° WSW
Cosmos 2181 Rocket 4.5 03:09:35 10° NNW 03:15:34 42° W 03:16:37 39° WSW
IRS-1C 4.1 03:10:52 10° N 03:16:12 73° WNW 03:17:23 54° SW
ATLAS 3B R/B 3.7 03:13:01 10° NNW 03:19:26 43° NE 03:25:35 10° ESE
CBERS-1 4.3 03:14:34 10° N 03:19:32 51° WNW 03:20:23 46° WSW
BREEZE M DEB (TANK) 4.5 03:17:54 16° WNW 03:20:52 27° NNW 03:23:17 10° NE
Cosmos 972 Rocket 4.3 03:20:50 38° SSE 03:22:22 55° ESE 03:27:15 10° NNE
Aureole 2 Rocket 4.5 03:21:34 23° SE 03:22:51 27° ESE 03:26:18 10° NE
Cosmos 389 Rocket 4.3 03:22:08 21° ESE 03:23:12 25° E 03:26:11 10° NE
Cosmos 1486 Rocket 3.9 03:21:08 10° NNW 03:26:27 74° WSW 03:28:16 41° S
DELTA 2 R/B (1) 3.5 03:31:08 42° WSW 03:33:03 76° SSE 03:38:37 10° E
CBERS 1 LM4 rocket 4.3 03:29:26 10° N 03:34:13 79° WNW 03:35:39 46° SSW
Cosmos 1953 Rocket 3.7 03:30:51 10° NNW 03:35:14 55° W 03:35:42 52° WSW
Iridium 4 Rocket 3.7 03:33:03 38° SSW 03:35:20 74° W 03:40:58 10° N
Cosmos 2058 Rocket 3.0 03:35:05 54° SW 03:36:00 72° W 03:40:32 10° N
NOSS 2-3 (C) 4.2 03:34:38 40° WSW 03:36:02 55° NW 03:41:26 10° NNE
CZ-2D R/B 2.2 03:31:41 10° N 03:37:09 71° WNW 03:39:11 39° SSW
Cosmos 1354 Rocket 4.1 03:35:19 10° NNW 03:40:38 77° ENE 03:45:57 10° SSE
Nadezhda 3 Rocket 4.0 03:34:56 10° N 03:41:13 82° E 03:46:29 15° S
Cosmos 2074 Rocket 4.4 03:41:27 33° SW 03:43:38 45° WNW 03:49:39 10° N
Cosmos 2237 4.3 03:41:31 38° SW 03:43:41 67° WNW 03:49:23 10° NNE
Cosmos 1340 Rocket 3.2 03:41:29 10° N 03:45:25 59° E 03:47:53 21° SSE
Cosmos 1271 Rocket 2.7 03:47:36 49° SSW 03:48:38 82° W 03:52:39 10° N
Cosmos 2263 Rocket 3.4 03:45:25 10° NW 03:49:18 23° W 03:49:18 23° W
OAO 3 Rocket 3.5 03:49:08 41° SW 03:50:02 47° S 03:54:43 10° ESE
USA 161 4.0 03:48:53 10° SE 03:51:17 22° ENE 03:53:37 10° NNE
BREEZE-M DEB (TANK) 1.8 03:54:08 58° SW 03:54:38 79° SSE 03:59:00 10° ENE
Cosmos 1726 Rocket 4.5 03:54:36 29° W 03:55:16 31° WNW 03:59:13 10° NNW
Cosmos 2360 Rocket 3.2 03:55:37 24° W 03:57:59 32° WNW 04:03:02 10° N
Okean O Rocket 4.1 03:54:58 10° NE 03:58:07 19° E 04:01:15 10° SE
UNKNOWN OBJECT B 2.7 03:56:11 10° N 04:00:03 80° WNW 04:01:32 36° SSW
Cosmos 2219 Rocket 2.3 03:57:17 25° S 04:00:43 74° ESE 04:06:24 10° NNE
CZ-2D R/B 3.4 03:58:41 10° NNE 04:03:01 87° WNW 04:05:07 29° SSW
Cosmos 1544 3.6 04:01:17 23° SSE 04:03:23 58° E 04:07:04 10° NNE
Lacrosse 5 rocket 3.0 04:01:03 10° NNW 04:04:45 36° NE 04:08:39 10° ESE
Cosmos 1980 4.5 04:00:57 15° S 04:05:27 47° ESE 04:10:53 10° NE
Cosmos 2154 Rocket 4.1 04:02:16 26° SSW 04:05:54 59° W 04:12:06 10° N
Cosmos 2237 Rocket 3.1 04:02:09 13° S 04:06:47 44° ESE 04:12:06 10° NE
Cosmos 1607 4.0 04:00:42 10° NW 04:07:03 60° WSW 04:13:21 10° SSE
COSMOS 2428 2.9 04:04:34 28° SW 04:07:36 60° WNW 04:13:17 10° NNE
USA 234 4.4 04:01:59 10° NE 04:07:50 36° NNW 04:13:34 10° W
Intercosmos 24 4.0 04:06:44 30° SSW 04:08:40 75° W 04:13:47 10° N
Cosmos 1844 Rocket 2.6 04:04:13 10° NNW 04:09:54 76° WSW 04:15:33 10° SSE
IRS-1D 4.3 04:05:28 10° N 04:09:54 34° WNW 04:12:00 24° WSW
ADEOS 4.1 04:05:50 10° N 04:10:46 44° WNW 04:13:24 25° SW
ERBS 3.5 04:10:04 24° S 04:11:28 34° SE 04:14:38 10° ENE
Cosmos 1758 4.4 04:09:29 10° SSE 04:13:16 42° E 04:17:06 10° NNE
Abrixas rocket 3.3 04:16:26 26° S 04:17:35 34° SE 04:20:39 10° ENE
Cosmos 1503 Rocket 4.3 04:13:54 10° NNW 04:18:59 48° WSW 04:24:05 10° S
Cosmos 1953 3.5 04:15:26 10° SSE 04:19:15 42° E 04:23:03 10° NNE
MOZ.5/SAFIR/RUBIN 5/SL-8 4.2 04:21:39 19° SSW 04:24:32 41° W 04:28:57 10° NNW
Cosmos 2366 rocket 4.3 04:19:29 10° S 04:25:33 66° E 04:31:43 10° NNE
Lacrosse 5 3.4 04:21:24 10° S 04:25:38 29° ESE 04:29:58 10° ENE
Cosmos 2333 Rocket 2.2 04:21:51 18° SSW 04:26:11 86° WNW 04:31:54 10° NNE
Cosmos 1184 Rocket 4.2 04:24:28 10° NW 04:27:03 21° W 04:27:09 21° W
Cosmos 2341 Rocket 4.2 04:23:28 17° SSW 04:28:16 55° W 04:34:32 10° N
Tiangong 1 3.1 04:28:22 13° SSE 04:29:13 14° SE 04:30:48 10° ESE
CZ-4B R/B 3.7 04:29:08 10° NNE 04:32:55 47° E 04:36:52 10° S
ARIANE 5 R/B 3.9 04:29:47 10° NNW 04:33:52 24° WNW 04:36:45 15° WSW
PSLV R/B 4.4 04:33:49 10° NNE 04:38:06 51° E 04:42:21 10° S
Cosmos 2278 Rocket 2.5 04:33:46 10° NNW 04:39:27 75° ENE 04:45:06 10° SSE
Meteor 1-24 Rocket 4.1 04:36:02 10° NNW 04:41:08 42° W 04:46:22 10° SSW
ATLAS 2AS CENTAUR R/B 3.8 04:35:17 14° WSW 04:41:39 41° NW 04:49:16 10° NNE
Cosmos 1766 4.3 04:41:32 18° SW 04:43:41 29° WNW 04:47:09 10° NNW
Atlas Centaur 2 3.6 04:43:13 10° S 04:45:09 13° SSE 04:47:13 10° SE
SL-16 R/B 4.0 04:43:18 14° WSW 04:45:47 17° W 04:49:48 10° NW
ADEOS II 2.1 04:40:30 10° NNE 04:45:48 87° ESE 04:51:03 10° SSW
Cosmos 2218 Rocket 4.0 04:41:10 10° SSW 04:47:25 75° W 04:53:48 10° N
NOSS 3-4 (A) 3.8 04:42:54 10° SSW 04:49:06 66° ESE 04:55:31 10° NE
NOSS 3-4 (C) 3.8 04:43:00 10° SSW 04:49:11 65° ESE 04:55:35 10° NE
Resurs 1-4 Rocket 3.9 04:46:19 10° NNW 04:49:24 16° WNW 04:52:28 10° W
Intelsat 5-1 Rocket 4.3 04:46:17 11° SSW 04:49:34 18° SSE 04:55:49 10° SE
Cosmos 1733 3.6 04:48:24 10° S 04:52:14 65° E 04:56:06 10° NNE
SL-16 R/B 3.2 04:49:15 10° S 04:54:38 46° ESE 05:00:01 10° NE
Aureole 2 Rocket 4.3 04:55:10 12° WSW 04:58:01 23° WNW 05:01:17 10° N
Cosmos 389 Rocket 4.4 04:56:10 12° WSW 04:58:03 17° WNW 05:00:27 10° NNW
Cosmos 1674 2.6 04:54:50 10° N 04:58:42 79° W 05:02:33 10° S
Timation 1 Rocket 4.3 04:53:09 10° NNW 04:59:08 79° WSW 05:05:05 10° SSE
SEDSat Delta rocket 4.1 05:00:36 11° SW 05:03:40 25° S 05:07:11 10° ESE
Cosmos 1844 4.3 04:59:08 10° NW 05:04:09 34° WSW 05:09:11 10° SSW
SeaSat 1 2.4 05:01:04 10° SSE 05:06:00 81° WSW 05:10:57 10° NNW
ATLAS CENTAUR R/B 2.3 05:02:03 10° NW 05:06:49 52° NE 05:09:05 10° ESE
Cosmos-2242 3.5 05:04:15 10° S 05:08:26 61° E 05:12:41 10° NNE
Landsat 4 3.6 05:05:02 10° S 05:08:44 79° WSW 05:12:29 10° NNW
ATLAS 3B R/B 3.1 05:03:59 10° NW 05:09:58 36° WSW 05:15:46 10° S
Cosmos 1777 Rocket 4.2 05:06:06 10° NNW 05:11:21 79° ENE 05:16:36 10° SSE
CZ-2C R/B 4.3 05:07:44 10° SSE 05:12:12 62° ENE 05:16:37 10° N
DELTA 2 R/B (1) 3.6 05:13:54 10° W 05:19:29 84° S 05:25:04 10° E
KORONAS-FOTON 3.9 05:16:01 10° NNW 05:19:55 64° W 05:23:48 10° S
